LVBWN SAEZ-SAAR

Flight info

Callsign LVBWN
Flight time 1h 3m
Altitude 18000
Route ATOVO3A ATOVO W5 PEDRO W5 ESKON DCT
Aircraft B58T/L-SG/C

Departure

Time 2026-04-17 22:58
Airport Ezeiza International Airport - Ministro Pistarini (SAEZ)

Arrival

Time 2026-04-18 00:01
Airport Rosario Islas Malvinas International Airport (SAAR)
Time Latitude Longitude Altitude Speed Heading
2026-04-17 22:35 -34.81682 -58.53642 69 ft 0 kts 128°
2026-04-17 22:48 -34.81687 -58.53639 69 ft 3 kts 178°
2026-04-17 22:49 -34.81661 -58.53675 69 ft 12 kts 314°
2026-04-17 22:49 -34.81631 -58.53756 69 ft 13 kts 218°
2026-04-17 22:49 -34.81709 -58.53867 66 ft 22 kts 239°
2026-04-17 22:49 -34.81782 -58.54022 69 ft 19 kts 251°
2026-04-17 22:50 -34.81783 -58.54179 70 ft 21 kts 280°
2026-04-17 22:50 -34.81765 -58.54368 70 ft 22 kts 276°
2026-04-17 22:50 -34.81755 -58.54548 70 ft 25 kts 261°
2026-04-17 22:50 -34.81776 -58.54772 66 ft 29 kts 280°
2026-04-17 22:51 -34.81737 -58.54993 70 ft 24 kts 282°
2026-04-17 22:51 -34.81703 -58.55174 70 ft 20 kts 280°
2026-04-17 22:51 -34.81716 -58.55312 68 ft 15 kts 226°
2026-04-17 22:51 -34.81764 -58.55344 70 ft 0 kts 191°
2026-04-17 22:57 -34.81845 -58.55318 72 ft 24 kts 158°
2026-04-17 22:57 -34.81915 -58.55276 72 ft 10 kts 101°
2026-04-17 22:57 -34.81990 -58.54872 74 ft 97 kts 102°
2026-04-17 22:57 -34.82160 -58.53875 338 ft 133 kts 103°
2026-04-17 22:58 -34.82401 -58.52783 962 ft 131 kts 112°
2026-04-17 22:58 -34.82765 -58.51837 1703 ft 119 kts 130°
2026-04-17 22:58 -34.83194 -58.51064 2432 ft 103 kts 134°
2026-04-17 22:58 -34.83630 -58.50344 2860 ft 109 kts 135°
2026-04-17 22:59 -34.84072 -58.49558 3267 ft 118 kts 132°
2026-04-17 22:59 -34.84556 -58.48719 3574 ft 127 kts 134°
2026-04-17 22:59 -34.85076 -58.47788 3901 ft 135 kts 131°
2026-04-17 22:59 -34.85584 -58.46816 4214 ft 140 kts 131°
2026-04-17 23:00 -34.86064 -58.45755 4528 ft 145 kts 128°
2026-04-17 23:00 -34.86583 -58.44706 4855 ft 145 kts 129°
2026-04-17 23:00 -34.87102 -58.43641 5177 ft 147 kts 129°
2026-04-17 23:00 -34.87619 -58.42560 5501 ft 148 kts 129°
2026-04-17 23:01 -34.88139 -58.41467 5821 ft 150 kts 129°
2026-04-17 23:01 -34.88661 -58.40366 6153 ft 151 kts 128°
2026-04-17 23:01 -34.89188 -58.39256 6464 ft 152 kts 128°
2026-04-17 23:01 -34.89717 -58.38141 6766 ft 153 kts 128°
2026-04-17 23:02 -34.90328 -58.37114 7076 ft 145 kts 149°
2026-04-17 23:02 -34.91239 -58.36741 7393 ft 138 kts 181°
2026-04-17 23:02 -34.92195 -58.36788 7710 ft 140 kts 174°
2026-04-17 23:02 -34.93093 -58.36352 8031 ft 148 kts 144°
2026-04-17 23:03 -34.93468 -58.35134 8361 ft 167 kts 98°
2026-04-17 23:03 -34.93064 -58.33758 8698 ft 182 kts 58°
2026-04-17 23:03 -34.91988 -58.32951 9019 ft 188 kts
2026-04-17 23:03 -34.90780 -58.33322 9354 ft 177 kts 314°
2026-04-17 23:04 -34.90267 -58.34540 9707 ft 157 kts 266°
2026-04-17 23:04 -34.90038 -58.35861 10030 ft 166 kts 286°
2026-04-17 23:04 -34.89536 -58.37140 10339 ft 168 kts 288°
2026-04-17 23:04 -34.89003 -58.38418 10650 ft 170 kts 289°
2026-04-17 23:05 -34.88453 -58.39696 10966 ft 171 kts 290°
2026-04-17 23:05 -34.87895 -58.40977 11280 ft 172 kts 290°
2026-04-17 23:05 -34.87334 -58.42262 11591 ft 172 kts 290°
2026-04-17 23:05 -34.86704 -58.43513 11912 ft 177 kts 304°
2026-04-17 23:06 -34.85765 -58.44524 12234 ft 182 kts 316°
2026-04-17 23:06 -34.84757 -58.45429 12560 ft 183 kts 317°
2026-04-17 23:06 -34.83728 -58.46345 12888 ft 183 kts 317°
2026-04-17 23:06 -34.82701 -58.47262 13221 ft 183 kts 317°
2026-04-17 23:07 -34.81673 -58.48183 13559 ft 183 kts 317°
2026-04-17 23:07 -34.80645 -58.49103 13874 ft 183 kts 317°
2026-04-17 23:07 -34.79616 -58.50024 14170 ft 184 kts 317°
2026-04-17 23:07 -34.78587 -58.50944 14470 ft 184 kts 317°
2026-04-17 23:08 -34.77555 -58.51867 14774 ft 184 kts 317°
2026-04-17 23:08 -34.76524 -58.52789 15088 ft 184 kts 317°
2026-04-17 23:08 -34.75493 -58.53710 15395 ft 184 kts 317°
2026-04-17 23:08 -34.74475 -58.54620 15704 ft 184 kts 317°
2026-04-17 23:09 -34.73443 -58.55542 16023 ft 184 kts 317°
2026-04-17 23:09 -34.72408 -58.56466 16365 ft 185 kts 317°
2026-04-17 23:09 -34.71372 -58.57390 16694 ft 185 kts 318°
2026-04-17 23:09 -34.70334 -58.58317 17020 ft 185 kts 318°
2026-04-17 23:10 -34.69298 -58.59241 17351 ft 185 kts 318°
2026-04-17 23:10 -34.68260 -58.60167 17686 ft 185 kts 318°
2026-04-17 23:10 -34.67213 -58.61101 17913 ft 192 kts 318°
2026-04-17 23:10 -34.66096 -58.62101 17927 ft 206 kts 319°
2026-04-17 23:11 -34.64917 -58.63148 17928 ft 213 kts 319°
2026-04-17 23:11 -34.63710 -58.64219 17896 ft 217 kts 319°
2026-04-17 23:11 -34.62487 -58.65305 17900 ft 219 kts 319°
2026-04-17 23:11 -34.61254 -58.66404 17900 ft 220 kts 319°
2026-04-17 23:12 -34.60053 -58.67471 17894 ft 212 kts 319°
2026-04-17 23:12 -34.58852 -58.68540 17892 ft 216 kts 319°
2026-04-17 23:12 -34.57630 -58.69629 17894 ft 219 kts 319°
2026-04-17 23:12 -34.56397 -58.70723 17899 ft 220 kts 319°
2026-04-17 23:13 -34.55156 -58.71825 17895 ft 222 kts 319°
2026-04-17 23:13 -34.53907 -58.72934 17898 ft 223 kts 319°
2026-04-17 23:13 -34.52652 -58.74048 17901 ft 224 kts 319°
2026-04-17 23:13 -34.51392 -58.75165 17924 ft 225 kts 319°
2026-04-17 23:14 -34.50131 -58.76283 17921 ft 225 kts 319°
2026-04-17 23:14 -34.48868 -58.77403 17920 ft 225 kts 319°
2026-04-17 23:14 -34.47619 -58.78509 17921 ft 225 kts 319°
2026-04-17 23:14 -34.46355 -58.79629 17924 ft 225 kts 319°
2026-04-17 23:15 -34.45087 -58.80751 17920 ft 225 kts 319°
2026-04-17 23:15 -34.43823 -58.81871 17923 ft 226 kts 319°
2026-04-17 23:15 -34.42555 -58.82993 17919 ft 225 kts 319°
2026-04-17 23:15 -34.41287 -58.84114 17918 ft 225 kts 319°
2026-04-17 23:16 -34.40031 -58.85224 17918 ft 225 kts 319°
2026-04-17 23:16 -34.38754 -58.86353 17915 ft 226 kts 319°
2026-04-17 23:16 -34.37485 -58.87474 17916 ft 226 kts 319°
2026-04-17 23:16 -34.36217 -58.88593 17915 ft 226 kts 319°
2026-04-17 23:17 -34.34967 -58.89697 17914 ft 226 kts 319°
2026-04-17 23:17 -34.33699 -58.90816 17912 ft 226 kts 319°
2026-04-17 23:17 -34.32432 -58.91934 17913 ft 226 kts 319°
2026-04-17 23:17 -34.31165 -58.93051 17910 ft 225 kts 319°
2026-04-17 23:18 -34.29896 -58.94170 17910 ft 225 kts 319°
2026-04-17 23:18 -34.28630 -58.95285 17909 ft 225 kts 319°
2026-04-17 23:18 -34.27362 -58.96401 17909 ft 225 kts 319°
2026-04-17 23:18 -34.26095 -58.97517 17912 ft 225 kts 318°
2026-04-17 23:19 -34.24828 -58.98632 17911 ft 225 kts 319°
2026-04-17 23:19 -34.23562 -58.99746 17911 ft 225 kts 319°
2026-04-17 23:19 -34.22293 -59.00862 17908 ft 225 kts 318°
2026-04-17 23:19 -34.21047 -59.01958 17908 ft 225 kts 318°
2026-04-17 23:20 -34.19782 -59.03069 17907 ft 225 kts 318°
2026-04-17 23:20 -34.18515 -59.04182 17905 ft 225 kts 318°
2026-04-17 23:20 -34.17251 -59.05292 17904 ft 225 kts 318°
2026-04-17 23:20 -34.15985 -59.06404 17903 ft 225 kts 318°
2026-04-17 23:21 -34.14718 -59.07515 17904 ft 225 kts 318°
2026-04-17 23:21 -34.13453 -59.08624 17899 ft 225 kts 319°
2026-04-17 23:21 -34.12187 -59.09734 17898 ft 225 kts 319°
2026-04-17 23:21 -34.10920 -59.10844 17901 ft 225 kts 319°
2026-04-17 23:22 -34.09655 -59.11953 17901 ft 225 kts 318°
2026-04-17 23:22 -34.08389 -59.13061 17906 ft 225 kts 319°
2026-04-17 23:22 -34.07141 -59.14154 17902 ft 225 kts 318°
2026-04-17 23:22 -34.05921 -59.15310 17906 ft 221 kts 309°
2026-04-17 23:23 -34.04931 -59.16707 17903 ft 218 kts 303°
2026-04-17 23:23 -34.03979 -59.18132 17909 ft 219 kts 304°
2026-04-17 23:23 -34.03006 -59.19547 17904 ft 219 kts 304°
2026-04-17 23:23 -34.02028 -59.20952 17906 ft 219 kts 304°
2026-04-17 23:24 -34.01050 -59.22359 17901 ft 219 kts 304°
2026-04-17 23:24 -34.00073 -59.23767 17904 ft 219 kts 304°
2026-04-17 23:24 -33.99096 -59.25176 17905 ft 219 kts 304°
2026-04-17 23:24 -33.98120 -59.26582 17908 ft 219 kts 304°
2026-04-17 23:25 -33.97143 -59.27989 17903 ft 219 kts 304°
2026-04-17 23:25 -33.96179 -59.29377 17905 ft 219 kts 304°
2026-04-17 23:25 -33.95189 -59.30800 17903 ft 219 kts 304°
2026-04-17 23:25 -33.94224 -59.32188 17905 ft 219 kts 304°
2026-04-17 23:26 -33.93247 -59.33592 17906 ft 219 kts 304°
2026-04-17 23:26 -33.92270 -59.34997 17902 ft 219 kts 304°
2026-04-17 23:26 -33.91292 -59.36401 17905 ft 219 kts 304°
2026-04-17 23:26 -33.90315 -59.37806 17908 ft 219 kts 304°
2026-04-17 23:27 -33.89337 -59.39209 17908 ft 219 kts 304°
2026-04-17 23:27 -33.88359 -59.40612 17908 ft 219 kts 304°
2026-04-17 23:27 -33.87381 -59.42014 17907 ft 219 kts 304°
2026-04-17 23:27 -33.86403 -59.43417 17909 ft 219 kts 304°
2026-04-17 23:28 -33.85426 -59.44817 17907 ft 219 kts 304°
2026-04-17 23:28 -33.84447 -59.46219 17910 ft 219 kts 304°
2026-04-17 23:28 -33.83483 -59.47600 17903 ft 219 kts 304°
2026-04-17 23:28 -33.82505 -59.49000 17907 ft 219 kts 304°
2026-04-17 23:29 -33.81526 -59.50400 17906 ft 219 kts 304°
2026-04-17 23:29 -33.80548 -59.51800 17908 ft 219 kts 304°
2026-04-17 23:29 -33.79569 -59.53200 17906 ft 219 kts 304°
2026-04-17 23:29 -33.78588 -59.54600 17905 ft 219 kts 304°
2026-04-17 23:30 -33.77610 -59.55999 17905 ft 219 kts 304°
2026-04-17 23:30 -33.76631 -59.57397 17905 ft 219 kts 304°
2026-04-17 23:30 -33.75650 -59.58797 17910 ft 219 kts 304°
2026-04-17 23:30 -33.74681 -59.60179 17909 ft 219 kts 304°
2026-04-17 23:31 -33.73701 -59.61577 17910 ft 219 kts 304°
2026-04-17 23:31 -33.72719 -59.62977 17909 ft 219 kts 304°
2026-04-17 23:31 -33.71740 -59.64374 17910 ft 219 kts 304°
2026-04-17 23:31 -33.70757 -59.65774 17904 ft 219 kts 304°
2026-04-17 23:32 -33.69775 -59.67172 17904 ft 219 kts 304°
2026-04-17 23:32 -33.68790 -59.68572 17907 ft 219 kts 304°
2026-04-17 23:32 -33.67807 -59.69967 17907 ft 219 kts 304°
2026-04-17 23:32 -33.66821 -59.71367 17906 ft 219 kts 304°
2026-04-17 23:33 -33.65835 -59.72766 17905 ft 219 kts 304°
2026-04-17 23:33 -33.64863 -59.74146 17908 ft 219 kts 304°
2026-04-17 23:33 -33.63878 -59.75543 17906 ft 219 kts 304°
2026-04-17 23:33 -33.62892 -59.76940 17907 ft 219 kts 304°
2026-04-17 23:34 -33.61906 -59.78338 17905 ft 219 kts 304°
2026-04-17 23:34 -33.60919 -59.79736 17907 ft 220 kts 304°
2026-04-17 23:34 -33.59932 -59.81133 17907 ft 220 kts 304°
2026-04-17 23:34 -33.58943 -59.82533 17905 ft 220 kts 304°
2026-04-17 23:35 -33.57970 -59.83910 17908 ft 219 kts 304°
2026-04-17 23:35 -33.56982 -59.85306 17907 ft 219 kts 304°
2026-04-17 23:35 -33.55996 -59.86701 17905 ft 220 kts 304°
2026-04-17 23:35 -33.55005 -59.88102 17907 ft 220 kts 304°
2026-04-17 23:36 -33.54016 -59.89499 17911 ft 220 kts 304°
2026-04-17 23:36 -33.53026 -59.90897 17909 ft 220 kts 304°
2026-04-17 23:36 -33.52036 -59.92294 17908 ft 220 kts 304°
2026-04-17 23:36 -33.51045 -59.93693 17906 ft 220 kts 304°
2026-04-17 23:37 -33.50053 -59.95091 17910 ft 220 kts 304°
2026-04-17 23:37 -33.49060 -59.96492 17907 ft 220 kts 304°
2026-04-17 23:37 -33.48081 -59.97871 17908 ft 220 kts 304°
2026-04-17 23:37 -33.47088 -59.99270 17903 ft 221 kts 304°
2026-04-17 23:38 -33.46095 -60.00669 17905 ft 221 kts 304°
2026-04-17 23:38 -33.45101 -60.02069 17906 ft 221 kts 304°
2026-04-17 23:38 -33.44105 -60.03470 17905 ft 221 kts 304°
2026-04-17 23:38 -33.43109 -60.04872 17904 ft 221 kts 304°
2026-04-17 23:39 -33.42114 -60.06270 17901 ft 221 kts 304°
2026-04-17 23:39 -33.41118 -60.07670 17905 ft 221 kts 304°
2026-04-17 23:39 -33.40124 -60.09068 17906 ft 221 kts 304°
2026-04-17 23:39 -33.39127 -60.10467 17903 ft 221 kts 304°
2026-04-17 23:40 -33.38131 -60.11866 17905 ft 221 kts 304°
2026-04-17 23:40 -33.37148 -60.13244 17905 ft 221 kts 304°
2026-04-17 23:40 -33.36153 -60.14642 17904 ft 221 kts 304°
2026-04-17 23:40 -33.35156 -60.16039 17906 ft 221 kts 304°
2026-04-17 23:41 -33.34160 -60.17435 17903 ft 221 kts 304°
2026-04-17 23:41 -33.33165 -60.18831 17904 ft 221 kts 304°
2026-04-17 23:41 -33.32167 -60.20227 17901 ft 221 kts 304°
2026-04-17 23:41 -33.31171 -60.21621 17904 ft 221 kts 305°
2026-04-17 23:42 -33.30174 -60.23018 17904 ft 221 kts 304°
2026-04-17 23:42 -33.29177 -60.24412 17902 ft 221 kts 304°
2026-04-17 23:42 -33.28282 -60.25848 17900 ft 216 kts 292°
2026-04-17 23:42 -33.27708 -60.27472 17979 ft 210 kts 286°
2026-04-17 23:43 -33.27162 -60.29100 17976 ft 212 kts 288°
2026-04-17 23:43 -33.26535 -60.30717 17881 ft 218 kts 290°
2026-04-17 23:43 -33.25861 -60.32371 17698 ft 224 kts 291°
2026-04-17 23:43 -33.25180 -60.34056 17522 ft 226 kts 291°
2026-04-17 23:44 -33.24491 -60.35775 17230 ft 230 kts 291°
2026-04-17 23:44 -33.23799 -60.37501 16981 ft 230 kts 291°
2026-04-17 23:44 -33.23122 -60.39182 16724 ft 220 kts 291°
2026-04-17 23:44 -33.22469 -60.40807 16468 ft 214 kts 291°
2026-04-17 23:45 -33.21212 -60.43942 15960 ft 208 kts 291°
2026-04-17 23:45 -33.20591 -60.45488 15705 ft 205 kts 291°
2026-04-17 23:45 -33.19991 -60.46972 15401 ft 192 kts 291°
2026-04-17 23:46 -33.19425 -60.48379 15050 ft 185 kts 291°
2026-04-17 23:46 -33.18878 -60.49741 14705 ft 179 kts 291°
2026-04-17 23:46 -33.18345 -60.51068 14367 ft 176 kts 291°
2026-04-17 23:46 -33.17820 -60.52372 14032 ft 173 kts 291°
2026-04-17 23:47 -33.17301 -60.53661 13701 ft 171 kts 291°
2026-04-17 23:47 -33.16787 -60.54937 13337 ft 170 kts 291°
2026-04-17 23:47 -33.16297 -60.56213 12969 ft 168 kts 284°
2026-04-17 23:47 -33.16393 -60.57538 12613 ft 164 kts 240°
2026-04-17 23:48 -33.17317 -60.58282 12271 ft 172 kts 193°
2026-04-17 23:48 -33.18483 -60.57922 11937 ft 184 kts 146°
2026-04-17 23:48 -33.19119 -60.56607 11589 ft 191 kts 99°
2026-04-17 23:48 -33.18823 -60.55083 11167 ft 194 kts 53°
2026-04-17 23:49 -33.17746 -60.54210 10754 ft 189 kts
2026-04-17 23:49 -33.16479 -60.54362 10350 ft 183 kts 336°
2026-04-17 23:49 -33.15568 -60.55343 9935 ft 179 kts 293°
2026-04-17 23:49 -33.15530 -60.56782 9501 ft 179 kts 248°
2026-04-17 23:50 -33.16383 -60.57816 9048 ft 181 kts 203°
2026-04-17 23:50 -33.17617 -60.57806 8605 ft 183 kts 157°
2026-04-17 23:50 -33.18483 -60.56763 8175 ft 184 kts 112°
2026-04-17 23:50 -33.18487 -60.55274 7745 ft 184 kts 67°
2026-04-17 23:51 -33.17616 -60.54205 7300 ft 183 kts 26°
2026-04-17 23:51 -33.16378 -60.53934 6855 ft 183 kts 354°
2026-04-17 23:51 -33.15205 -60.54472 6419 ft 182 kts 322°
2026-04-17 23:51 -33.14445 -60.55656 5957 ft 181 kts 292°
2026-04-17 23:52 -33.14065 -60.57085 5488 ft 181 kts 285°
2026-04-17 23:52 -33.13700 -60.58520 5038 ft 181 kts 288°
2026-04-17 23:52 -33.13305 -60.59939 4580 ft 180 kts 288°
2026-04-17 23:52 -33.12903 -60.61354 4110 ft 180 kts 288°
2026-04-17 23:53 -33.12509 -60.62743 3652 ft 179 kts 288°
2026-04-17 23:53 -33.12114 -60.64139 3251 ft 175 kts 288°
2026-04-17 23:53 -33.11733 -60.65485 3002 ft 163 kts 288°
2026-04-17 23:53 -33.11388 -60.66707 2991 ft 155 kts 288°
2026-04-17 23:54 -33.11033 -60.67961 2999 ft 164 kts 288°
2026-04-17 23:54 -33.10660 -60.69274 3004 ft 169 kts 288°
2026-04-17 23:54 -33.10280 -60.70614 3013 ft 172 kts 288°
2026-04-17 23:54 -33.09893 -60.71970 3012 ft 173 kts 289°
2026-04-17 23:55 -33.09420 -60.73292 3009 ft 174 kts 292°
2026-04-17 23:55 -33.08980 -60.74638 2998 ft 175 kts 291°
2026-04-17 23:55 -33.08520 -60.76018 2759 ft 185 kts 292°
2026-04-17 23:55 -33.08031 -60.77456 2550 ft 188 kts 292°
2026-04-17 23:56 -33.07543 -60.78883 2333 ft 180 kts 292°
2026-04-17 23:56 -33.07082 -60.80233 2105 ft 173 kts 292°
2026-04-17 23:56 -33.06406 -60.81349 1993 ft 162 kts 324°
2026-04-17 23:56 -33.05402 -60.81803 1994 ft 151 kts 355°
2026-04-17 23:57 -33.04373 -60.81775 1994 ft 146 kts 12°
2026-04-17 23:57 -33.03395 -60.81484 1995 ft 144 kts 13°
2026-04-17 23:57 -33.02424 -60.81233 1992 ft 143 kts 12°
2026-04-17 23:57 -33.01471 -60.81006 2001 ft 133 kts 11°
2026-04-17 23:58 -33.00595 -60.80802 1992 ft 124 kts 11°
2026-04-17 23:58 -32.99758 -60.80611 1859 ft 123 kts 11°
2026-04-17 23:58 -32.98932 -60.80423 1706 ft 118 kts 11°
2026-04-17 23:58 -32.98149 -60.80244 1536 ft 114 kts 11°
2026-04-17 23:59 -32.97381 -60.80070 1380 ft 112 kts 11°
2026-04-17 23:59 -32.96601 -60.79892 1231 ft 117 kts 11°
2026-04-17 23:59 -32.95789 -60.79706 1087 ft 120 kts 11°
2026-04-17 23:59 -32.94945 -60.79512 874 ft 126 kts 11°
2026-04-18 00:00 -32.94127 -60.79331 704 ft 116 kts 11°
2026-04-18 00:00 -32.93348 -60.79156 527 ft 113 kts 12°
2026-04-18 00:00 -32.92587 -60.78975 315 ft 105 kts 12°
2026-04-18 00:00 -32.91888 -60.78815 149 ft 101 kts 12°
2026-04-18 00:01 -32.91327 -60.78688 93 ft 64 kts 11°
2026-04-18 00:01 -32.91048 -60.78618 93 ft 34 kts 15°
2026-04-18 00:01 -32.90867 -60.78564 92 ft 11 kts 91°
2026-04-18 00:01 -32.90943 -60.78537 93 ft 14 kts 168°
2026-04-18 00:02 -32.91056 -60.78498 93 ft 20 kts 156°
2026-04-18 00:02 -32.91174 -60.78396 90 ft 21 kts 142°